Location: Miles
(41.4492°N, 81.6087°W)
Time: 05:06:42
(UTC+00:00)

Tiros 1 despin weight - Pass Details

Date: 16 September 2024
Orbit: 573 x 615 km, 48.2° (Epoch: 04 October)

Event Time Altitude Azimuth Distance (km) Brightness Sun altitude
Rises 13:43:21 0° 297° (WNW) 2,892 ? 27.5°
Reaches altitude 10° 13:45:41 10° 295° (WNW) 1,983 ? 27.9°
Maximum altitude 13:50:13 69° 213° (SSW) 659 ? 28.7°
Drops below altitude 10° 13:54:42 10° 130° (SE) 1,959 ? 29.5°
Sets 13:56:59 0° 128° (SE) 2,854 ? 29.8°
